www.pogodaiklimat.ru

Погода и климат >> Архив погоды >> Германия >> Бамберг


ПОГОДА в Бамберге

  • Прогноз погоды в Бамберге
  • Монитор погоды в Бамберге

АРХИВ ПОГОДЫ в Бамберге

Время (UTC), дата Ветер
(напр.,м/с)
 
Видим.   Явления Облачность Т
(С)
Тd
(С)
f
(%)
Тe
(С)
Тes
(С)
Комфортность P
(гПа)
Po
(гПа)
Тmin
(С)
Tmax
(С)
R
(мм)
R24
(мм)
S
(см)
01 13.09 В 1-1
{1}
35 км ясно +9.3 +8.8 97 +9 +9 1031.4 1002.0
02 13.09 В 1-1
{1}
20 км ясно +8.5 +7.9 96 +8 +8 1031.5 1002.0
03 13.09 ЮВ 1-2
{2}
21 км ясно +8.4 +7.9 97 +7 +7 1031.3 1001.8
04 13.09 В 1-1
{1}
22 км ясно +8.2 +7.7 97 +7 +7 1031.5 1002.0
05 13.09 ЮВ 1-2
{2}
23 км 10/10 1110 м
[]
+9.7 +9.6 99 +9 +9 1031.7 1002.3
06 13.09 Ю 1 30 км 10/10 1000 м
[]
+11.9 +11.3 96 +12 +12 1031.6 1002.5 +8.0 +16.3
07 13.09 Ю 1-2
{2}
30 км 6/6 1300 м
[]
+14.5 +13.0 91 +15 +16 1031.3 1002.5
08 13.09 ЮВ 2-3
{3}
50 км 10/10 1170 м
[]
+16.7 +13.1 79 +17 +17 1031.4 1002.8
09 13.09 В 1 50 км 8/8 1230 м
[]
+19.2 +12.9 67 +22 +23 комфорт 1031.4 1003.0
10 13.09 ЮВ 1 50 км 6/6 700 м
[]
+21.5 +14.1 63 +24 +29 комфорт 1030.9 1002.8
11 13.09 З 3 >70 км 10/10 1000 м
[]
+21.2 +13.1 60 +24 +24 комфорт 1030.8 1002.6
12 13.09 З 3 >70 км 9/9 1050 м
[]
+22.0 +13.6 59 +25 +26 комфорт 1030.7 1002.6
13 13.09 СЗ 3-5
{6}
>70 км 9/9 1110 м
[]
+21.7 +13.2 58 +24 +25 комфорт 1030.6 1002.5
14 13.09 СЗ 3-6
{7}
60 км 10/10 1110 м
[]
+21.2 +13.4 61 +24 +24 комфорт 1030.8 1002.6
15 13.09 С 4 >70 км 9/9 1470 м
[]
+21.4 +13.1 59 +24 +24 комфорт 1030.6 1002.4
16 13.09 С 2-5
{6}
>70 км 10/10 1500 м
[]
+21.5 +13.4 60 +24 +24 комфорт 1030.3 1002.2
17 13.09 В 1-1
{3}
>70 км 8/8 1500 м
[]
+21.4 +13.8 62 +24 +24 комфорт 1030.4 1002.3
18 13.09 З 1 24 км 5/5 1000 м
[]
+16.1 +12.9 81 +17 +17 1031.3 1002.6 +11.9 +22.3
19 13.09 СВ 1-1
{2}
35 км 1/0
[]
+13.6 +12.3 92 +14 +14 1031.8 1002.9
20 13.09 ЮВ 1-1
{1}
45 км 4/0
[]
+12.4 +11.6 95 +12 +12 1032.3 1003.2
21 13.09 ЮВ 1 30 км 10/10 1110 м
[]
+11.9 +11.1 95 +12 +12 1033.0 1003.8
22 13.09 ЮВ 1-2
{2}
22 км 8/0 2000 м
[]
+12.3 +11.9 97 +12 +12 1032.7 1003.6
23 13.09 В 1 35 км 9/9 1000 м
[]
+11.3 +10.6 95 +11 +11 1032.9 1003.7
00 14.09 В 1 45 км 9/9 1000 м
[]
+11.7 +11.1 96 +11 +11 1033.0 1003.8
01 14.09 ЮВ 1-1
{1}
27 км 1/0 2000 м
[]
+10.8 +10.0 95 +10 +10 1033.0 1003.7
02 14.09 В 1 30 км 8/0
[]
+9.4 +8.5 94 +9 +9 1032.9 1003.5
03 14.09 СВ 1 26 км 10/0
[]
+9.0 +8.5 97 +8 +8 1033.2 1003.7
04 14.09 С 1 22 км 10/0
[]
+8.7 +8.1 96 +8 +8 1033.0 1003.5
05 14.09 С 2 35 км 9/0
[]
+9.9 +9.5 97 +8 +8 1033.3 1003.9
06 14.09 С 3 55 км 8/8 1000 м
[]
+12.4 +9.2 81 +11 +11 1033.5 1004.4 +8.2 +16.1
07 14.09 СЗ 2 50 км 9/9 1230 м
[]
+14.0 +8.9 71 +14 +14 1033.2 1004.2
08 14.09 СЗ 2-3
{4}
45 км 5/0
[]
+16.1 +8.7 61 +16 +20 1032.8 1004.0
09 14.09 З 3 55 км ясно +17.8 +9.5 58 +18 +24 1032.1 1003.5
10 14.09 СЗ 1-3
{3}
45 км ясно +20.2 +10.3 53 +23 +33 комфорт 1031.6 1003.3
11 14.09 С 4-6
{6}
>70 км 8/8 1200 м
[]
+20.5 +10.3 52 +22 +24 комфорт 1031.1 1002.8
12 14.09 СВ 4 55 км 1/1 1380 м
[]
+21.0 +10.8 52 +23 +29 комфорт 1030.5 1002.3
13 14.09 С 2-4
{6}
50 км 3/3 1350 м
[]
+22.8 +10.7 46 +25 +30 комфорт 1029.7 1001.7
14 14.09 СЗ 2-3
{5}
60 км 4/4 1500 м
[]
+22.3 +9.5 44 +24 +27 комфорт 1028.9 1000.8
15 14.09 СВ 2 50 км 5/5 1500 м
[]
+23.2 +10.4 44 +25 +27 комфорт 1028.4 1000.4
16 14.09 С 2-4
{4}
60 км ясно +22.8 +10.3 45 +25 +26 комфорт 1027.9 999.9
17 14.09 СВ 2-3
{5}
60 км 8/0
[]
+20.9 +11.6 55 +24 +24 комфорт 1028.0 999.9
18 14.09 В 1 30 км 10/0
[]
+15.6 +11.3 76 +16 +16 1028.6 999.9 +12.3 +24.3
19 14.09 Ю 1 35 км 10/0
[]
+13.0 +10.7 86 +13 +13 1029.1 1000.2
20 14.09 В 1 30 км 10/0
[]
+11.9 +10.4 91 +12 +12 1029.2 1000.1
21 14.09 В 1 26 км 3/0
[]
+10.9 +10.0 94 +10 +10 1029.3 1000.1
22 14.09 ЮВ 1-1
{1}
14 км ясно +9.6 +8.6 93 +9 +9 1028.8 999.5
23 14.09 штиль 0-1
{1}
23 км ясно +9.0 +8.4 96 +8 +8 1028.6 999.2
00 15.09 В 1 15 км ясно +8.2 +7.4 95 +7 +7 1028.4 999.0
01 15.09 ЮВ 1-1
{1}
22 км ясно +7.6 +6.9 95 +7 +7 1028.1 998.6
02 15.09 В 1-1
{1}
10 км ясно +7.3 +6.6 95 +6 +6 1027.6 998.1
03 15.09 ЮВ 1-1
{1}
12 км ясно +7.1 +6.8 98 +6 +6 1027.2 997.7
04 15.09 ЮВ 1-1
{1}
8000 м ясно +6.6 +6.1 97 +5 +5 1026.8 997.2
05 15.09 СВ 1-1
{1}
19 км н/о +5.8 +5.0 95 +4 +4 1026.9 997.2
06 15.09 штиль 0 18 км ясно +8.2 +7.0 92 +7 +8 1026.6 997.2 +5.6 +15.5
07 15.09 В 1 30 км 5/5 1230 м
[]
+12.5 +8.8 78 +13 +14 1026.1 997.2
08 15.09 ЮВ 1-2
{2}
45 км 8/0
[]
+15.9 +10.6 71 +17 +20 1025.3 996.7
09 15.09 ЮВ 1 60 км 8/0
[]
+18.8 +12.5 67 +21 +25 комфорт 1024.7 996.5
10 15.09 ЮЗ 1-4
{4}
40 км 5/0
[]
+21.7 +12.4 55 +24 +32 комфорт 1023.7 995.8
11 15.09 Ю 3-5
{5}
60 км 1/0
[]
+24.4 +13.2 50 +27 +34 жарко 1022.6 994.9
12 15.09 З 3-5
{7}
30 км ясно +25.2 +12.9 46 +27 +35 жарко 1022.0 994.4
13 15.09 З 3-6
{6}
>70 км н/о +26.4 +12.6 42 +28 +28 жарко 1021.0 993.6
14 15.09 З 3-6
{7}
22 км н/о +26.5 +9.9 35 +27 +27 жарко 1020.3 992.9
15 15.09 З 3 >70 км 3/0
[]
+26.4 +10.0 36 +27 +29 жарко 1019.9 992.5
16 15.09 З 2-4
{6}
60 км 10/0
[]
+26.4 +8.2 32 +26 +27 жарко 1019.4 992.0
17 15.09 З 2 >70 км 10/0
[]
+24.2 +8.4 36 +25 +25 комфорт 1019.3 991.7
18 15.09 штиль 0 65 км 10/0
[]
+16.1 +11.5 74 +16 +16 1020.4 992.0 +8.2 +27.1
19 15.09 В 1-2
{2}
50 км 3/0
[]
+13.7 +11.2 85 +14 +14 1021.0 992.4
20 15.09 Ю 1 60 км 6/0
[]
+11.4 +9.1 86 +11 +11 1021.8 992.9
21 15.09 ЮВ 1 40 км 1/0
[]
+10.1 +9.0 93 +10 +10 1022.1 993.0
22 15.09 В 1-1
{1}
40 км ясно +9.1 +7.9 92 +8 +8 1022.2 993.0
23 15.09 ЮВ 1-1
{1}
30 км ясно +8.6 +7.6 93 +8 +8 1022.0 992.8
00 16.09 ЮВ 1 45 км ясно +7.4 +6.2 92 +6 +6 1022.2 992.8
01 16.09 ЮВ 1-1
{1}
29 км ясно +7.4 +6.8 96 +6 +6 1022.1 992.8
02 16.09 ЮВ 1-1
{1}
29 км ясно +6.8 +6.1 95 +6 +6 1021.8 992.4
03 16.09 ЮВ 1 18 км 3/0
[]
+6.4 +6.0 97 +5 +5 1021.8 992.4
04 16.09 В 1-1
{1}
13 км ясно +6.0 +5.6 97 +5 +5 1021.7 992.2
05 16.09 штиль 0 19 км 9/0
[]
+5.4 +4.6 95 +4 +4 1021.7 992.1
06 16.09 В 1 17 км 10/0
[]
+7.8 +7.3 97 +7 +7 1021.7 992.4 +5.1 +15.9
07 16.09 ЮВ 1 24 км 9/0
[]
+9.4 +8.0 91 +9 +10 1021.8 992.7
08 16.09 В 1 55 км 10/0
[]
+13.5 +9.4 76 +14 +16 1020.9 992.2
09 16.09 Ю 1 60 км 10/0
[]
+15.9 +9.4 65 +17 +21 1020.6 992.2
10 16.09 ЮВ 3 >70 км 10/0
[]
+18.9 +8.8 52 +20 +23 1019.5 991.4
11 16.09 З 1 50 км 10/0
[]
+21.1 +8.3 44 +22 +28 комфорт 1019.2 991.3
12 16.09 З 1 50 км 10/0
[]
+21.6 +7.9 41 +23 +28 комфорт 1018.7 990.8
13 16.09 ЮЗ 1 50 км 10/0
[]
+22.5 +9.3 43 +24 +29 комфорт 1017.5 989.8
14 16.09 З 2-3
{3}
50 км 10/0
[]
+21.8 +10.5 49 +24 +26 комфорт 1017.3 989.5
15 16.09 СЗ 2 40 км 10/0
[]
+21.4 +10.3 49 +23 +25 комфорт 1017.3 989.5
16 16.09 СЗ 2-3
{3}
50 км 10/0
[]
+20.7 +11.1 54 +23 +24 комфорт 1017.1 989.2
17 16.09 ЮЗ 1 65 км 9/0
[]
+18.2 +13.7 75 +20 +20 1017.2 989.1
18 16.09 Ю 1 55 км 10/0
[]
+16.8 +13.6 81 +18 +18 1017.3 989.1 +7.9 +22.5
19 16.09 З 1-2
{2}
50 км в посл. час дождь {морось} 10/0
[]
+16.0 +13.2 83 +17 +17 1017.7 989.4
20 16.09 З 1-1
{3}
55 км в посл. час дождь {морось} 10/0
[]
+15.9 +12.7 81 +17 +17 1017.6 989.3
21 16.09 СЗ 2 60 км {дождь, морось} 10/10 1230 м
[]
+17.7 +11.6 67 +18 +18 1017.6 989.4 0.0
22 16.09 СЗ 2 50 км 10/10 1200 м
[]
+17.9 +11.4 66 +18 +18 1017.6 989.5
23 16.09 С 4 60 км 10/10 870 м
[]
+17.3 +12.4 73 +17 +17 1017.8 989.6
00 17.09 С 2 60 км {дождь, морось} 10/10 600 м
[]
+16.7 +12.5 76 +17 +17 1017.6 989.4
01 17.09 СЗ 5-7
{7}
>70 км 9/9 800 м
[]
+15.7 +11.3 75 +15 +15 1018.1 989.7
02 17.09 СЗ 4-7
{7}
>70 км 9/9 800 м
[]
+15.3 +10.4 73 +14 +14 1018.2 989.8
03 17.09 С 3 >70 км 10/10 570 м
[]
+14.7 +9.6 71 +14 +14 1018.5 990.0
04 17.09 С 3-4
{6}
>70 км 10/10 870 м
[]
+14.5 +8.8 69 +14 +14 1018.2 989.7
05 17.09 С 2-4
{6}
>70 км 10/10 930 м
[]
+14.1 +8.4 69 +14 +14 1018.6 990.0
06 17.09 С 3 55 км 10/10 600 м
[]
+13.9 +8.0 68 +13 +13 1019.1 990.5 +13.9 +18.3 0.0
07 17.09 С 3-5
{5}
65 км 10/10 930 м
[]
+14.0 +6.7 61 +13 +13 1019.6 991.0
08 17.09 С 4-6
{7}
55 км 10/10 960 м
[]
+14.8 +7.3 61 +14 +14 1019.5 991.0
09 17.09 СЗ 3 65 км 9/9 960 м
[]
+15.9 +6.8 55 +16 +16 1019.1 990.7
10 17.09 СЗ 4 60 км 9/9 1080 м
[]
+16.7 +6.9 52 +16 +17 1019.0 990.7
11 17.09 СЗ 4 60 км 9/0
[]
+17.3 +6.3 48 +17 +20 1018.5 990.2
12 17.09 З 3 55 км 9/0
[]
+19.0 +6.1 43 +20 +24 1017.7 989.6
13 17.09 З 4 50 км 10/0
[]
+19.4 +5.1 39 +20 +22 1017.3 989.3
14 17.09 СЗ 6-9
{11}
29 км 10/0
[]
+19.6 +5.2 39 +20 +21 1017.0 989.0
15 17.09 З 6 50 км 9/0
[]
+18.9 +4.8 39 +19 +19 1017.2 989.1
16 17.09 З 5 45 км 9/0
[]
+18.0 +4.6 41 +18 +18 1017.5 989.3
17 17.09 З 5 60 км 10/10 1500 м
[]
+17.5 +5.3 45 +17 +17 1017.8 989.6
18 17.09 СЗ 4 65 км 10/0
[]
+16.4 +4.2 44 +16 +16 1018.6 990.2 +13.9 +19.9
19 17.09 СЗ 4 60 км 9/0 2000 м
[]
+15.8 +4.5 47 +15 +15 1019.5 991.0
20 17.09 СЗ 2 55 км 9/9 1500 м
[]
+14.2 +5.0 54 +14 +14 1020.3 991.7
21 17.09 С 4 >70 км 5/5 1500 м
[]
+14.1 +4.9 54 +13 +13 1021.0 992.3
22 17.09 СЗ 4 60 км 9/9 1110 м
[]
+13.5 +5.6 59 +12 +12 1021.8 993.1
23 17.09 СЗ 4-7
{9}
50 км ясно +12.2 +4.0 57 +10 +10 1022.6 993.7
00 18.09 С 2 40 км ясно +10.4 +3.5 62 +9 +9 1023.5 994.4
01 18.09 СЗ 1-2
{5}
50 км ясно +7.6 +3.2 74 +7 +7 1024.1 994.7
02 18.09 СЗ 1-2
{2}
35 км ясно +4.8 +3.0 88 +3 +3 1024.6 994.9
03 18.09 СВ 1-2
{5}
35 км ясно +4.0 +2.7 91 +2 +2 1024.9 995.1
04 18.09 ЮВ 1-2
{2}
40 км ясно +3.2 +2.2 93 +2 +2 1025.3 995.4
05 18.09 В 1-1
{2}
35 км ясно +2.2 +1.3 94 0 0 1026.1 996.1
06 18.09 ЮВ 1 30 км ясно +3.6 +1.4 86 +2 +3 1026.3 996.4 +1.4 +16.5
07 18.09 ЮВ 1-2
{2}
50 км ясно +7.6 +2.8 72 +7 +9 1026.5 997.0
08 18.09 С 2-3
{3}
35 км 1/0
[]
+10.9 +3.3 59 +10 +14 1026.4 997.3
09 18.09 СЗ 1 26 км 6/0
[]
+12.4 +4.5 59 +13 +18 1026.3 997.3
10 18.09 С 2-4
{5}
55 км 3/3 930 м
[]
+14.6 +4.4 50 +14 +20 1025.8 997.1
11 18.09 СЗ 2-3
{7}
45 км 9/9 1320 м
[]
+14.4 +2.3 44 +14 +15 1025.7 996.9
12 18.09 СЗ 3 45 км 3/3 1440 м
[]
+16.4 +2.8 40 +16 +21 1025.0 996.4
13 18.09 З 2-4
{5}
45 км 4/4 1500 м
[]
+15.9 +2.0 39 +16 +21 1024.5 995.9
14 18.09 СЗ 3-6
{7}
50 км 4/4 1500 м
[]
+15.9 +1.2 37 +16 +18 1024.0 995.4
15 18.09 СЗ 4-7
{8}
50 км ясно +17.1 +1.4 35 +17 +19 1023.7 995.2
16 18.09 С 5-8
{8}
60 км ясно +16.6 +0.5 34 +16 +16 1023.6 995.1
17 18.09 СЗ 3-6
{7}
50 км ясно +15.5 +0.6 36 +15 +15 1023.8 995.2
18 18.09 СЗ 2 50 км 5/0
[]
+13.6 +0.6 41 +13 +13 1024.5 995.7 +3.6 +17.6
19 18.09 В 1-1
{4}
45 км ясно +7.5 +2.2 69 +7 +7 1026.1 996.6
20 18.09 В 1-1
{2}
40 км ясно +4.9 +2.3 83 +4 +4 1026.8 997.0
21 18.09 В 1-2
{4}
35 км ясно +3.9 +2.1 88 +2 +2 1027.3 997.4
22 18.09 В 1-2
{2}
40 км ясно +3.1 +1.8 91 +1 +1 1027.4 997.4
23 18.09 В 1 45 км 9/0
[]
+2.2 +0.4 88 +1 +1 1027.9 997.8
00 19.09 ЮВ 1 45 км 10/0
[]
+2.0 +0.1 87 0 0 1028.1 998.0
01 19.09 В 1 45 км 10/0
[]
+1.6 -0.2 88 -0 -0 1028.3 998.1
02 19.09 В 1 40 км 6/0
[]
+0.6 -1.2 88 -1 -1 1028.6 998.3
03 19.09 СВ 1 30 км 4/0
[]
+0.9 0.0 94 -1 -1 1028.6 998.3
04 19.09 В 1-1
{1}
30 км ясно +0.3 -0.7 93 -2 -2 1028.9 998.6
05 19.09 В 1-1
{1}
30 км ясно -0.5 -1.7 92 -3 -3 1029.6 999.1
06 19.09 В 1 35 км ясно +0.8 -1.3 86 -1 -1 1029.9 999.6 -0.5 +13.7
07 19.09 Ю 1-1
{1}
40 км ясно +6.6 +1.8 71 +6 +8 1029.8 1000.1
08 19.09 С 2 35 км 6/0
[]
+10.1 +3.6 64 +9 +12 1029.6 1000.3
09 19.09 С 3 40 км 3/0
[]
+12.7 +3.1 52 +12 +16 1029.8 1000.7
10 19.09 СВ 3 50 км 8/8 1350 м
[]
+13.4 +1.0 43 +13 +14 1029.5 1000.5
11 19.09 С 4-7
{9}
>70 км 8/8 1500 м
[]
+13.3 -0.1 40 +12 +13 1029.5 1000.5
12 19.09 В 1 40 км 5/5 1500 м
[]
+14.5 +0.7 39 +15 +20 1029.0 1000.1
13 19.09 СВ 3 >70 км 6/6 1500 м
[]
+15.8 +1.3 37 +15 +18 1028.5 999.8
14 19.09 С 4 50 км 8/8 1500 м
[]
+15.6 0.0 34 +15 +16 1028.7 999.9
15 19.09 С 3 >70 км 10/0
[]
+15.8 0.0 34 +16 +17 1028.2 999.5
16 19.09 СВ 3 50 км 10/0
[]
+15.4 +0.7 37 +15 +15 1028.3 999.5
17 19.09 СВ 3 60 км 9/0
[]
+13.7 +0.8 41 +13 +13 1028.5 999.6
18 19.09 В 1 50 км 1/0
[]
+7.6 +2.0 68 +7 +7 1029.9 1000.3 +0.9 +16.1
19 19.09 ЮВ 1-1
{2}
55 км 1/0
[]
+4.9 +1.1 76 +4 +4 1030.5 1000.6
20 19.09 В 1-1
{1}
50 км 3/0
[]
+3.3 +0.9 84 +2 +2 1031.2 1001.1
21 19.09 В 1 65 км 9/0
[]
+2.4 +0.7 89 +1 +1 1031.5 1001.3
22 19.09 В 1 45 км 9/0
[]
+2.3 +1.0 91 +1 +1 1031.8 1001.6
23 19.09 В 1 45 км 4/0
[]
+0.7 -0.7 90 -1 -1 1031.8 1001.4
00 20.09 В 1 45 км 10/0
[]
+0.4 -1.0 90 -2 -2 1031.7 1001.3
01 20.09 В 1 60 км 10/0
[]
+0.3 -0.9 92 -2 -2 1031.3 1000.9

 

Местоположение метеостанции Бамберг (Германия): широта 49.88 долгота 10.92 высота над уровнем моря 242 м.

В архиве по умолчанию представлена погода в Бамберге за последнюю неделю. Архивные данные за месяц целиком и за предыдущие месяцы, начиная с января 2011 года, Вы можете получить, выбрав интересующий диапазон дат из раскрывающегося списка и нажав кнопку "Ввод!".


*Определитесь, кто Вы:
робот инопланетянин человек

Внимание! Время в таблицах - всемирное. Для получения местного времени необходимо прибавить поправку, которая равна 1 ч.

Смотрите также архив погоды в соседних городах и на ближайших метеорологических станциях:

Погода в Нюрнберге (Германия) (44 км)
Погода в Кобурге (Германия) (45 км)
Погода в Вюрцбурге (Германия) (69 км)
Погода в Бад-Киссингене (Германия) (70 км)
Погода в Нойхаусе (Германия) (71 км)
Погода в Роте (Германия) (75 км)
Погода в Шёнбрунне (Германия) (77 км)
Погода в Хофе (Германия) (84 км)
Погода в Майнингене (Германия) (86 км)
Погода в Шмюкке (Германия) (86 км)

Пояснения к столбцам:

Ветер - указаны скорость ветра в м/с - средняя за 10 мин, порывы в срок и между сроками (в фигурных скобках) и направление, откуда дует ветер: С - северный, СВ - северо-восточный, В - восточный, ЮВ - юго-восточный, Ю - южный, ЮЗ - юго-западный, З - западный, СЗ - северо-западный.
Видимость - горизонтальная дальность видимости в метрах или километрах. При видимости от 1 до 10 км при отсутствии осадков обычно наблюдается дымка, при ухудшении видимости до 1 км и менее - туман. В сухую погоду видимость может ухудшаться дымом, пылью или мглою.
Явления - указаны атмосферные явления, наблюдавшиеся в срок или в последний час перед сроком; фигурными скобками обозначены явления, наблюдавшиеся между сроками (за 1-3 часа до срока); квадратными скобками обозначены град или гололедные отложения с указанием их диаметра в мм.
Облачность - указаны через наклонную черту общая и нижняя облачность в баллах и высота нижней границы облаков в метрах; квадратными скобками обозначены формы облаков: Ci - перистые, Cs - перисто-слоистые, Cc - перисто-кучевые, Ac - высококучевые, As - высокослоистые, Sc - слоисто-кучевые, Ns - слоисто-дождевые, Cu - кучевые, Cb - кучево-дождевые. Подробнее классификацию облаков см. в Атласе облаков (PDF).
T - Температура воздуха - температура, измеренная на высоте 2 м над землей.
Td - Температура точки росы - температура, при понижении до которой содержащийся в воздухе водяной пар достигнет насыщения.
f - Относительная влажность воздуха - влажноcть воздуха, измеренная на высоте 2 м над землей.
Te - Эффективная температура - температура, которую ощущает одетый по сезону человек в тени. Характеристика душности погоды. При расчете учитывается влияние влажности воздуха и скорости ветра на теплоощущения человека.
Tes - Эффективная температура на солнце - температура, которую ощущает человек, с поправкой на солнечный нагрев. Характеристика знойности погоды. Зависит от высоты солнца над горизонтом, облачности и скорости ветра. Ночью, в пасмурную погоду, а также при ветре 12 м/с и более поправка равна нулю.
P - Атмосферное давление - приведенное к уровню моря атмосферное давление.
Po - Атмосферное давление - измеренное на уровне метеостанции атмосферное давление.
Tmin - Минимальная температура - минимум температуры воздуха на высоте 2 м над землей.
Tmax - Максимальная температура - максимум температуры воздуха на высоте 2 м над землей.
R - Количество осадков - Количество выпавших осадков за период времени, мм. При наведении курсора мыши на число - период времени, за который выпало указанное количество осадков.
R24 - Количество осадков - Количество выпавших осадков за 24 часа, мм.
S - Снежный покров - Высота снежного покрова, см. При наведении курсора мыши на число - состояние снежного покрова и степень покрытия местности в баллах.